Location: Round Knob
(37.2473°N, 88.7376°W)
Time: 13:27:20
(UTC+00:00)

ISS - Visible Passes

Search period start: 24 September 2021 00:00
Search period end: 04 October 2021 00:00
Orbit: 419 x 423 km, 51.6° (Epoch: 24 September)

Date Brightness Start Highest point End Pass type
(mag) Time Alt. Az. Time Alt. Az. Time Alt. Az.
24 Sep -0.9 00:23:20 10° NW 00:24:43 12° NNW 00:26:08 10° N visible
29 Sep -1.0 01:22:07 10° N 01:22:45 11° NNE 01:22:45 11° NNE visible
01 Oct -1.5 01:23:57 10° NNW 01:25:30 17° N 01:25:30 17° N visible
02 Oct -1.6 00:37:24 10° NNW 00:39:21 14° NNE 00:40:27 13° NE visible
02 Oct -0.3 02:13:16 10° NW 02:13:27 11° NW 02:13:27 11° NW visible
03 Oct -2.2 01:26:25 10° NW 01:28:27 30° NNW 01:28:27 30° NNW visible
